Temp
70 77 82 84 81 81 80 81 76 79 78 75 72 70 71 73 73 77 77 76 74 75 74 75 77 78 76 76 77 76 75 74 76 74 76 76 77 77 78 75 76 78 78
73 73 79 83 81 79 77 73 74 76 74 73 72 69 69 71 76 76 76 76 76 74 74 75 75 76 75 76 76 75 74 74 76 72 72 70 74 74 78 77 77 79 80
76 72 76 81 80 78 77 76 75 76 77 75 73 71 69 71 69 75 76 77 76 77 77 78 76 76 76 76 76 75 74 72 75 75 71 70 67 70 75 76 77 82 78
82 79 80 82 84 81 81 79 79 78 79 78 76 73 73 70 76 78 78 80 79 79 81 78 77 76 76 75 75 78 75 74 71 73 77 74 71 69 68 75 76 76 79
84 84 84 87 86 85 82 81 80 79 79 79 76 76 73 76 76 75 74 74 76 79 80 78 78 77 76 76 76 76 74 75 74 73 71 71 72 73 69 68 72 76 77
86 86 85 88 86 86 85 81 79 78 78 77 76 76 74 74 73 74 73 74 78 76 74 74 74 77 76 76 76 77 77 75 75 73 72 71 69 68 68 69 70 70 77
86 84 83 85 85 84 84 82 79 77 78 78 79 77 77 75 75 76 77 77 74 74 74 75 73 75 73 72 75 76 76 75 74 75 73 73 71 71 69 69 69 73 75
85 82 84 86 86 85 84 84 80 78 78 78 78 78 79 78 79 77 77 76 73 75 75 76 74 73 73 71 76 76 75 76 75 74 73 73 73 72 72 69 69 67 70
87 86 87 87 86 85 84 83 80 78 78 80 79 78 79 79 78 78 76 73 76 77 74 73 71 75 76 75 76 74 74 73 74 73 73 72 72 72 73 72 70 66 63
89 89 89 88 88 87 86 83 82 81 81 82 81 80 80 80 77 76 73 74 74 75 76 76 75 75 74 75 74 73 74 73 72 73 71 71 71 71 71 70 70 69 66
89 89 89 89 89 87 87 83 83 82 82 83 84 83 77 75 72 74 73 72 73 73 73 73 73 73 72 72 71 71 74 71 70 70 68 67 69 69 69 70 69 68 68
89 89 89 89 89 87 85 84 85 85 86 87 81 74 74 74 73 71 72 72 71 72 72 72 69 69 70 73 70 70 72 70 68 68 65 64 68 65 65 67 67 68 68
86 89 88 84 87 87 87 87 87 85 83 80 75 73 72 71 71 70 70 71 70 69 69 68 67 68 72 72 71 72 71 70 68 66 64 63 63 62 64 63 63 64 67
87 86 84 81 83 83 83 82 83 81 79 77 74 71 70 70 71 74 69 68 70 70 67 66 66 68 67 67 70 71 70 70 69 65 64 63 62 61 61 63 62 66 63
85 84 82 81 81 82 82 80 78 76 75 74 71 69 70 69 71 72 67 67 67 66 65 65 65 65 65 67 65 66 65 68 66 64 65 65 69 69 66 62 60 60 61
85 83 82 81 81 80 79 78 77 75 74 71 68 68 68 70 71 71 72 66 65 64 64 64 63 61 66 65 69 67 63 63 62 61 62 64 65 64 67 68 68 65 59
83 82 82 81 80 78 77 75 74 73 70 67 67 67 66 66 66 65 65 64 64 63 63 62 61 59 59 64 66 69 63 61 60 60 61 64 66 62 61 66 67 66 67
83 82 82 81 80 78 76 75 73 71 69 66 66 67 67 66 66 66 65 65 64 63 62 62 61 60 61 63 64 69 63 60 58 58 58 58 58 60 62 62 62 62 61
84 83 83 82 80 76 74 73 70 69 68 67 67 67 67 66 66 65 65 65 64 63 62 61 60 58 58 62 64 65 62 58 58 58 58 57 56 62 62 59 58 58 59
85 83 84 81 76 74 74 71 69 68 67 68 68 68 67 67 66 66 65 65 64 62 62 61 59 62 57 61 62 62 62 59 58 57 60 64 61 61 60 57 57 57 57
85 85 83 77 74 74 73 70 69 68 69 70 69 68 67 66 66 66 65 63 62 60 58 58 56 57 58 58 61 62 61 59 58 58 58 60 64 61 60 60 57 57 57
84 84 79 74 74 74 72 69 68 70 70 70 68 67 67 70 67 65 64 63 61 59 57 56 56 58 58 61 61 61 61 64 59 58 58 58 61 60 60 60 61 60 62
84 82 76 74 73 73 73 69 69 71 70 69 67 67 66 66 65 63 63 62 62 61 58 57 55 56 58 58 63 63 63 63 59 58 60 60 59 59 59 61 63 62 58
82 78 76 73 72 73 73 71 71 71 70 68 67 66 66 64 64 64 63 62 62 61 61 60 56 56 57 56 56 57 56 60 58 57 55 60 62 62 62 61 59 58 57
80 78 76 74 72 73 71 71 72 71 69 69 68 67 67 63 59 56 59 57 50 57 59 58 60 57 54 56 53 53 55 52 52 51 56 58 58 57 56 57 56 56 56
79 76 75 74 73 72 71 71 72 72 70 69 69 69 68 65 60 58 54 51 51 51 51 55 59 56 57 53 51 50 48 47 50 54 54 54 55 55 54 54 54 54 56
MSLP
1013.42 1012.96 1012.58 1012.67 1013.15 1013.40 1013.86 1014.40 1015.12 1015.46 1015.88 1016.79 1017.49 1018.08 1018.20 1018.35 1018.39 1018.04 1018.04 1017.93 1018.00 1017.90 1017.93 1017.73 1017.42 1017.00 1017.28 1017.10 1017.02 1017.01 1017.07 1016.93 1016.70 1016.78 1016.30 1015.78 1015.37 1015.34 1015.61 1015.39 1015.02 1014.50 1014.79
1012.50 1012.62 1012.28 1012.75 1013.33 1013.42 1013.84 1014.47 1014.91 1015.36 1015.66 1016.07 1016.50 1017.07 1017.75 1018.00 1018.02 1017.95 1017.85 1017.78 1017.81 1017.55 1017.55 1017.38 1017.12 1016.97 1017.14 1017.03 1017.12 1017.11 1017.20 1016.89 1016.54 1016.93 1016.82 1016.28 1015.79 1015.42 1015.03 1014.91 1015.00 1014.72 1014.35
1011.02 1012.07 1012.19 1012.76 1013.23 1013.35 1013.72 1014.22 1014.67 1014.97 1015.20 1015.86 1016.61 1017.17 1017.84 1018.30 1018.49 1017.87 1017.59 1017.11 1016.96 1016.97 1017.02 1016.78 1016.91 1017.16 1017.29 1017.32 1017.25 1016.93 1017.17 1016.95 1016.47 1016.61 1016.82 1016.63 1016.61 1016.05 1015.12 1014.75 1014.57 1014.36 1014.34
1010.08 1011.32 1011.59 1011.88 1012.35 1012.87 1013.24 1013.79 1014.32 1014.55 1014.92 1015.72 1016.38 1016.90 1017.28 1017.80 1017.32 1016.89 1016.77 1016.60 1016.62 1016.48 1016.40 1016.44 1016.60 1016.87 1016.97 1017.28 1017.18 1017.10 1016.95 1016.96 1016.86 1016.40 1016.08 1016.35 1016.65 1016.36 1015.97 1015.12 1014.53 1014.16 1014.18
1009.33 1009.84 1010.18 1010.81 1011.38 1012.22 1012.82 1013.40 1013.94 1014.37 1014.72 1015.39 1015.84 1016.50 1016.72 1016.43 1016.33 1016.71 1016.67 1016.65 1016.55 1016.17 1016.42 1016.50 1016.56 1016.59 1016.71 1016.81 1016.67 1016.60 1016.95 1016.80 1016.78 1016.73 1016.44 1016.06 1015.85 1015.82 1016.16 1016.04 1015.28 1014.42 1013.93
1008.72 1009.04 1009.44 1010.10 1010.97 1011.66 1012.38 1013.20 1013.72 1014.19 1014.47 1014.96 1015.54 1015.97 1016.03 1015.99 1016.40 1016.57 1016.45 1016.29 1016.08 1015.98 1016.25 1016.73 1017.12 1016.15 1016.26 1016.13 1016.21 1016.26 1016.08 1016.30 1016.45 1016.33 1016.44 1016.26 1016.20 1016.12 1016.29 1016.13 1015.63 1015.20 1014.30
1007.95 1008.50 1009.14 1009.81 1010.62 1011.35 1011.99 1012.79 1013.42 1013.87 1014.13 1014.60 1015.00 1015.38 1015.48 1015.68 1015.91 1016.12 1016.01 1015.70 1016.12 1015.82 1016.19 1016.29 1016.19 1016.78 1017.16 1016.77 1016.00 1015.74 1015.85 1015.87 1016.40 1016.31 1016.33 1015.93 1015.83 1015.93 1015.97 1016.03 1015.75 1015.35 1014.35
1007.31 1007.93 1008.60 1009.32 1010.04 1010.78 1011.40 1012.16 1012.99 1013.54 1013.84 1014.15 1014.49 1014.84 1015.16 1015.38 1015.71 1015.98 1015.87 1015.65 1016.02 1015.50 1015.80 1016.24 1015.50 1015.87 1016.22 1016.27 1015.97 1015.57 1015.73 1015.81 1016.24 1016.23 1016.12 1015.86 1015.66 1015.67 1015.69 1015.79 1015.78 1015.54 1015.11
1006.60 1007.23 1008.01 1008.66 1009.48 1010.31 1010.98 1011.61 1012.40 1013.05 1013.48 1013.71 1014.18 1014.81 1015.06 1015.31 1015.76 1015.78 1015.90 1016.08 1015.86 1015.93 1016.02 1016.28 1016.44 1016.31 1016.19 1015.87 1015.72 1015.87 1015.89 1016.27 1016.42 1016.23 1016.11 1015.98 1015.76 1015.70 1015.74 1015.79 1015.77 1015.85 1015.87
1005.81 1006.65 1007.50 1008.23 1008.99 1009.63 1010.46 1011.31 1011.89 1012.46 1013.00 1013.44 1014.19 1014.59 1014.73 1015.02 1015.61 1015.99 1016.41 1016.25 1016.86 1016.60 1016.61 1016.74 1017.01 1016.79 1016.42 1016.11 1016.06 1016.12 1016.40 1016.72 1016.59 1016.55 1016.50 1016.42 1016.19 1016.14 1016.13 1016.06 1016.00 1016.09 1016.14
1005.34 1006.17 1007.05 1007.87 1008.52 1009.19 1010.10 1011.05 1011.81 1012.40 1012.72 1013.00 1013.60 1013.99 1014.95 1015.21 1015.10 1016.90 1016.99 1016.97 1017.41 1017.48 1017.25 1017.19 1017.26 1017.22 1017.16 1016.94 1017.01 1016.94 1017.06 1017.19 1017.33 1017.34 1017.26 1017.14 1016.97 1016.89 1016.67 1016.44 1016.28 1016.34 1016.33
1004.92 1005.64 1006.46 1007.36 1008.19 1008.98 1009.76 1010.67 1011.41 1011.86 1012.00 1012.25 1013.83 1015.01 1015.81 1015.93 1016.65 1017.49 1017.05 1017.21 1017.34 1017.36 1017.32 1017.37 1017.45 1017.47 1017.41 1017.43 1017.46 1017.59 1017.70 1017.69 1017.76 1017.73 1017.72 1017.80 1017.55 1017.43 1017.28 1017.03 1016.96 1016.80 1016.48
1004.61 1005.49 1006.49 1007.41 1008.14 1008.87 1009.57 1010.29 1010.78 1011.38 1011.94 1012.70 1014.23 1015.50 1016.27 1016.72 1017.19 1017.34 1017.44 1017.82 1017.91 1017.81 1017.77 1017.76 1017.79 1017.80 1017.90 1017.97 1018.03 1017.89 1017.91 1018.06 1018.16 1018.34 1018.47 1018.47 1018.31 1018.29 1018.11 1017.85 1017.65 1017.41 1017.03
1004.65 1005.72 1006.68 1007.52 1008.18 1008.99 1009.57 1010.29 1011.06 1011.81 1012.55 1013.39 1014.49 1015.88 1016.89 1017.29 1017.67 1018.05 1018.33 1018.27 1018.21 1018.25 1018.22 1018.24 1018.35 1018.56 1018.65 1018.59 1018.44 1018.42 1018.56 1018.70 1018.93 1019.06 1019.05 1019.08 1018.99 1018.96 1018.68 1018.43 1018.24 1017.78 1017.67
1005.07 1005.94 1007.01 1007.89 1008.69 1009.45 1010.24 1011.14 1012.01 1012.60 1013.23 1013.99 1014.91 1015.92 1016.77 1017.41 1017.92 1018.27 1018.44 1018.54 1018.64 1018.76 1018.89 1019.07 1019.31 1019.40 1019.48 1019.50 1019.32 1019.33 1019.39 1019.50 1019.64 1019.68 1019.60 1019.53 1019.37 1019.38 1019.22 1018.97 1018.94 1018.60 1018.48
1005.34 1006.20 1007.22 1008.12 1009.05 1009.84 1010.79 1011.68 1012.64 1013.34 1013.82 1014.80 1015.72 1016.43 1016.99 1017.55 1018.03 1018.27 1018.44 1018.79 1019.08 1019.36 1019.57 1019.81 1020.06 1020.20 1020.22 1020.01 1019.91 1019.96 1020.04 1020.09 1020.10 1020.11 1020.08 1020.07 1019.85 1019.63 1019.43 1019.42 1019.19 1019.06 1019.01
1005.47 1006.43 1007.33 1008.21 1009.19 1010.16 1011.00 1012.07 1013.05 1013.84 1014.60 1015.50 1016.27 1016.78 1017.25 1017.77 1018.28 1018.65 1018.91 1019.27 1019.61 1019.85 1020.15 1020.41 1020.52 1020.66 1020.65 1020.51 1020.39 1020.40 1020.45 1020.66 1020.84 1020.88 1020.75 1020.55 1020.34 1020.03 1019.85 1019.64 1019.46 1019.35 1019.30
1005.65 1006.50 1007.30 1008.34 1009.38 1010.42 1011.47 1012.45 1013.37 1014.17 1015.04 1015.92 1016.52 1017.02 1017.51 1018.10 1018.53 1018.92 1019.23 1019.57 1019.84 1020.16 1020.46 1020.69 1020.87 1020.93 1020.86 1020.54 1020.52 1020.46 1020.90 1021.03 1021.29 1021.30 1021.23 1021.08 1020.89 1020.54 1020.37 1020.13 1020.01 1019.80 1019.59
1005.27 1006.09 1007.10 1008.10 1009.39 1010.69 1011.73 1012.75 1013.88 1014.71 1015.48 1016.15 1016.72 1017.29 1017.69 1018.24 1018.66 1019.14 1019.43 1019.68 1020.09 1020.48 1020.77 1020.98 1021.21 1021.33 1021.18 1020.59 1020.26 1020.83 1021.46 1021.60 1021.68 1021.53 1021.35 1021.10 1021.06 1020.84 1020.69 1020.52 1020.63 1020.31 1019.87
1005.01 1006.07 1007.15 1008.38 1009.71 1011.11 1011.94 1012.98 1014.18 1015.04 1015.68 1016.15 1016.69 1017.20 1017.74 1018.28 1018.84 1019.12 1019.50 1019.99 1020.41 1020.87 1021.22 1021.50 1021.57 1021.58 1021.44 1020.92 1020.74 1020.99 1021.47 1021.84 1021.89 1021.72 1021.55 1021.14 1021.19 1020.97 1020.91 1020.98 1020.93 1020.61 1020.35
1004.90 1006.00 1007.12 1008.58 1009.81 1011.03 1012.06 1013.22 1014.20 1014.98 1015.53 1016.01 1016.68 1017.36 1017.91 1018.37 1018.73 1019.18 1019.65 1020.16 1020.75 1021.24 1021.58 1021.81 1021.92 1021.88 1021.75 1021.61 1021.32 1021.28 1021.65 1021.90 1022.09 1022.11 1022.01 1021.74 1021.31 1021.24 1021.05 1021.03 1021.04 1020.90 1020.42
1004.71 1006.02 1007.38 1008.95 1010.32 1011.33 1012.26 1013.17 1013.95 1014.56 1015.33 1016.06 1016.77 1017.40 1017.89 1018.38 1018.85 1019.29 1019.88 1020.36 1020.94 1021.54 1021.98 1022.19 1022.31 1022.23 1022.17 1021.85 1021.85 1021.82 1021.84 1021.83 1022.23 1022.49 1022.18 1021.89 1021.46 1021.34 1021.11 1021.05 1020.91 1020.86 1020.63
1004.06 1005.69 1007.03 1008.89 1010.23 1011.26 1012.06 1013.06 1013.83 1014.24 1015.18 1016.09 1016.84 1017.39 1017.97 1018.58 1019.08 1019.65 1020.17 1020.69 1021.12 1021.66 1022.08 1022.31 1022.51 1022.71 1022.62 1022.44 1022.04 1022.09 1022.09 1022.02 1022.23 1022.28 1021.97 1021.59 1021.33 1021.19 1021.33 1020.96 1020.81 1020.97 1021.13
1004.05 1005.61 1007.07 1008.59 1009.87 1010.99 1011.95 1012.64 1013.50 1014.07 1014.81 1015.78 1016.70 1017.35 1018.00 1018.70 1019.10 1019.47 1019.95 1020.52 1021.10 1021.49 1021.92 1022.31 1022.59 1022.77 1023.00 1022.91 1022.81 1022.74 1022.61 1022.50 1022.56 1022.44 1021.85 1021.46 1021.54 1021.50 1021.56 1021.39 1021.42 1021.49 1021.48
1004.10 1005.37 1006.75 1008.31 1009.46 1010.50 1011.64 1012.55 1013.42 1014.22 1014.85 1015.57 1016.33 1017.08 1017.67 1018.29 1019.07 1019.67 1019.95 1020.42 1020.76 1020.62 1020.91 1021.61 1022.09 1022.49 1022.99 1023.04 1022.99 1023.04 1023.12 1023.21 1023.18 1022.76 1022.34 1022.30 1022.21 1022.43 1022.31 1022.10 1022.05 1021.96 1021.88
1004.06 1005.58 1006.76 1008.04 1009.31 1010.29 1011.17 1012.13 1013.09 1014.00 1014.60 1015.27 1015.92 1016.53 1017.17 1017.90 1018.67 1019.63 1020.52 1020.68 1020.32 1020.50 1020.71 1021.16 1021.54 1022.07 1021.83 1022.26 1022.66 1022.85 1023.16 1023.32 1023.24 1023.04 1023.14 1022.99 1022.94 1023.01 1023.08 1022.92 1022.80 1022.41 1022.21
Wind_Speed
15 11 8 10 7 7 13 13 12 12 11 9 9 5 7 6 5 8 6 6 6 6 6 6 7 2 2 4 3 2 3 3 2 3 4 4 4 3 5 3 5 10 7
18 11 14 13 13 11 13 11 9 8 7 7 6 4 5 4 5 5 6 6 6 7 7 10 6 4 3 4 4 4 2 3 0 0 3 4 5 4 2 3 5 5 5
15 14 14 18 16 12 14 14 10 8 9 8 5 4 3 4 2 6 5 9 10 11 10 7 5 5 3 3 4 4 4 3 1 2 3 3 2 3 2 3 2 5 5
11 19 24 17 18 15 14 12 12 10 8 10 8 8 7 6 9 10 8 9 10 11 9 6 6 6 4 5 4 4 4 2 4 3 2 3 4 1 5 4 5 4 3
14 19 16 18 17 17 15 13 12 11 7 11 9 8 6 7 3 3 5 6 6 7 5 6 5 6 5 6 6 5 3 3 2 2 2 1 2 2 1 3 5 5 4
14 18 12 14 15 13 13 14 13 10 7 8 8 10 8 6 3 4 4 5 2 1 2 3 6 7 5 5 5 5 3 3 4 3 3 2 1 3 2 2 3 3 5
16 12 12 15 15 15 13 12 13 10 8 9 9 9 10 8 8 8 5 4 3 3 3 4 9 9 8 10 9 3 3 3 3 3 3 2 2 1 2 1 3 3 3
17 14 15 15 17 17 16 15 12 9 8 8 8 7 8 4 5 5 4 3 3 2 2 6 5 5 9 10 11 1 2 3 2 4 3 3 2 3 1 2 2 3 2
18 19 16 18 16 16 16 15 14 8 7 9 6 6 5 5 2 6 5 3 1 4 6 4 6 5 3 3 4 3 5 4 2 3 3 3 3 3 4 3 1 2 3
18 16 18 17 14 16 15 14 15 14 10 9 7 7 8 6 3 6 7 9 7 6 6 6 6 6 5 6 6 5 5 5 5 5 7 7 4 5 4 4 3 2 1
18 17 17 17 14 10 14 14 12 12 11 9 11 8 4 9 6 6 5 6 6 5 7 7 7 7 7 6 6 6 9 8 9 9 9 9 8 6 6 5 4 4 3
18 16 16 15 13 12 13 15 13 13 13 14 10 13 13 12 8 3 6 6 6 6 7 9 9 8 8 9 7 8 8 10 11 10 10 9 7 8 7 6 7 6 4
13 16 13 9 12 11 11 14 12 8 10 14 16 14 12 11 9 7 7 7 7 7 8 8 7 8 10 8 7 8 9 10 12 9 9 9 9 9 8 7 6 5 5
15 12 11 8 10 9 8 8 12 13 14 14 14 14 13 12 9 7 6 6 7 10 8 7 9 10 10 9 10 10 10 8 8 6 6 6 7 7 6 8 7 6 6
15 14 14 12 12 14 14 15 13 13 13 14 14 13 12 11 10 8 6 6 8 7 7 8 8 9 9 6 7 7 8 9 9 6 6 8 12 9 8 4 6 6 5
17 18 16 15 14 14 14 15 14 13 13 13 12 11 11 10 9 7 8 7 8 8 7 9 8 7 6 12 10 8 6 8 7 7 7 6 11 9 9 5 11 8 5
19 18 17 15 13 14 15 15 14 13 13 12 11 10 7 8 7 7 7 8 7 7 7 7 7 7 6 13 12 12 6 7 7 7 6 6 7 10 7 8 8 10 12
17 16 15 14 14 15 15 15 13 13 13 11 9 7 9 8 7 7 6 7 6 7 6 6 7 7 5 9 6 10 7 8 7 6 6 6 7 8 8 7 8 6 5
17 15 15 16 15 16 15 15 13 12 12 10 8 9 8 8 7 7 7 6 7 7 6 6 7 7 6 10 10 10 6 6 5 5 5 6 7 11 13 7 7 7 5
18 18 18 15 17 15 15 15 13 12 11 11 9 8 7 7 7 7 7 6 7 6 5 6 6 7 6 9 11 8 5 6 3 3 5 8 6 9 9 7 6 7 4
19 19 19 17 17 16 16 15 13 12 10 11 9 8 7 8 7 6 6 7 7 7 6 6 4 5 5 7 12 12 6 4 3 2 3 4 9 10 11 10 5 4 5
20 20 18 17 15 15 15 15 14 12 12 11 11 10 8 7 7 8 5 7 7 7 6 5 4 3 4 7 9 9 9 6 3 3 3 4 7 8 10 9 10 12 7
21 19 20 18 15 15 15 15 13 15 14 13 12 11 8 7 6 7 6 5 6 6 5 4 4 3 2 3 7 9 10 7 4 4 8 11 9 8 6 7 8 7 5
21 19 21 19 18 15 14 14 16 15 16 15 12 9 11 8 6 5 4 4 4 5 6 5 4 4 3 2 3 3 4 7 6 8 7 7 6 5 5 6 6 4 3
19 20 19 18 18 17 15 16 15 15 14 14 12 11 9 7 6 5 3 5 1 4 6 5 7 7 4 3 4 3 3 3 4 7 4 4 5 5 4 4 5 5 5
19 17 18 19 18 17 17 17 16 16 16 14 11 10 10 7 7 7 6 9 6 6 9 9 8 1 8 9 6 2 2 1 4 3 3 2 3 4 3 5 4 4 5
Wind_Direction
174 176 201 161 168 153 130 139 143 152 135 139 142 153 176 188 205 222 247 237 243 264 269 274 276 234 267 256 276 253 270 297 264 320 313 284 306 129 179 234 216 213 200
169 196 186 177 193 169 136 139 155 168 148 153 163 141 164 198 208 246 244 239 231 235 246 244 249 255 258 268 260 246 279 264 307 244 280 330 336 332 320 262 219 252 192
166 168 185 202 175 168 159 162 181 168 161 164 124 92 55 61 336 249 246 245 242 245 236 242 243 257 254 256 267 227 235 272 268 141 182 357 297 311 303 289 296 273 195
171 170 191 171 168 170 169 162 175 172 172 146 153 169 179 179 212 225 234 240 233 238 240 231 228 234 246 260 261 263 220 200 275 326 158 180 199 320 328 334 333 351 323
192 164 163 170 160 158 171 166 171 175 170 162 167 175 199 211 190 199 240 261 268 222 237 268 248 230 228 250 243 247 262 237 231 231 302 324 280 145 148 286 315 328 330
184 174 165 147 156 159 151 158 168 183 178 172 171 183 201 218 215 238 242 241 241 184 128 334 301 250 226 229 249 251 233 269 269 290 282 199 256 314 338 323 309 281 311
163 166 142 152 152 160 159 157 170 187 186 177 186 187 202 209 213 216 226 216 148 264 334 358 317 310 24 341 290 267 307 288 259 274 283 253 231 187 235 266 291 288 319
163 165 171 161 164 167 168 171 167 177 183 181 187 195 203 216 224 220 225 227 165 274 198 164 198 280 188 217 254 280 331 350 322 332 309 286 310 323 324 202 183 318 318
171 168 174 163 167 166 168 170 168 171 179 190 182 193 214 233 247 267 260 96 92 137 126 166 223 253 84 63 46 42 39 28 20 348 1 18 5 6 13 21 80 165 347
164 157 163 162 168 164 169 166 168 176 182 181 186 186 197 203 7 12 40 61 51 50 49 54 56 49 39 36 49 37 32 36 22 24 44 28 10 18 17 14 19 10 269
155 150 156 162 168 158 156 163 163 169 188 193 192 195 69 89 17 13 48 62 74 76 74 67 60 52 49 42 62 70 58 57 55 46 44 32 25 23 14 8 9 15 19
156 151 154 158 156 155 142 158 169 177 192 200 108 94 92 94 107 131 66 55 55 51 65 60 54 49 48 50 48 57 61 65 58 50 42 28 23 25 8 10 11 10 354
148 146 150 149 150 148 145 162 176 158 103 103 103 101 100 100 94 71 58 58 61 57 57 58 52 44 45 61 62 67 61 71 67 61 53 32 31 30 22 20 15 353 355
132 134 124 118 130 138 142 103 99 100 98 101 99 100 102 97 92 95 75 73 76 68 61 55 56 51 45 36 49 50 52 82 79 61 62 57 43 32 27 34 15 9 22
130 120 116 110 107 106 103 101 99 96 99 94 92 93 96 98 99 98 90 78 77 73 62 58 58 55 50 40 58 57 50 53 51 55 57 40 41 39 40 48 21 27 16
126 124 121 116 117 114 113 112 109 106 101 95 100 105 106 108 111 104 88 81 76 70 67 61 59 48 46 34 49 78 64 48 44 42 36 35 29 12 9 39 59 55 39
135 135 133 130 126 115 118 114 113 111 104 105 108 112 115 110 107 101 94 83 87 86 80 78 70 54 34 27 36 75 70 63 47 38 34 26 17 14 1 26 62 49 34
140 138 136 130 121 120 113 114 113 111 109 113 127 121 116 119 123 126 126 115 109 101 95 84 71 53 23 16 50 97 81 78 63 55 44 40 15 6 22 26 29 32 37
150 146 138 133 126 126 123 117 115 116 123 132 129 128 131 129 128 128 126 124 95 88 76 75 70 68 19 1 99 115 110 88 75 49 45 50 25 359 11 39 18 5 3
148 142 141 128 126 131 128 125 130 134 141 144 140 136 137 133 127 130 116 96 97 91 84 75 73 72 54 39 68 100 127 100 88 38 17 1 16 1 13 22 7 21 326
147 143 139 137 138 137 135 138 141 145 145 138 131 120 117 120 124 110 111 111 107 100 97 95 74 71 70 49 66 74 90 121 104 62 354 337 341 344 346 5 359 329 302
144 146 137 135 140 140 140 145 146 144 136 128 127 128 131 135 123 122 118 122 125 123 124 115 83 47 50 59 45 55 59 53 82 12 334 317 321 319 322 337 316 335 11
149 146 139 139 144 149 151 148 153 142 137 135 140 143 131 126 125 127 137 137 142 145 158 146 140 125 50 34 35 22 18 34 61 359 311 303 311 318 333 346 24 37 42
150 145 143 148 152 154 156 150 152 149 145 145 148 137 135 137 149 149 144 152 176 177 172 185 170 159 136 72 46 53 32 20 16 342 325 323 323 326 56 40 31 45 42
147 150 151 155 157 156 151 152 155 154 151 150 146 146 151 150 122 95 152 132 189 181 140 149 147 138 147 199 161 117 37 4 330 324 7 17 48 39 27 20 27 19 24
150 152 154 154 159 156 153 158 160 162 158 155 155 161 160 145 136 129 92 38 92 95 103 128 137 74 149 163 184 235 336 331 338 41 25 21 64 62 31 31 14 5 13